TimeCDT,TemperatureF,Dew PointF,Humidity,Sea Level PressureIn,VisibilityMPH,Wind Direction,Wind SpeedMPH,Gust SpeedMPH,PrecipitationIn,Events,Conditions,WindDirDegrees,DateUTC
12:53 AM,72.0,68.0,87,30.20,9.0,ESE,4.6,-,N/A,,Partly Cloudy,110,2013-05-14 05:53:00
1:53 AM,70.0,68.0,93,30.18,8.0,South,3.5,-,N/A,,Partly Cloudy,180,2013-05-14 06:53:00
2:53 AM,70.0,68.0,93,30.17,7.0,South,3.5,-,N/A,,Clear,190,2013-05-14 07:53:00
3:53 AM,70.0,68.0,93,30.15,8.0,Calm,Calm,-,N/A,,Clear,0,2013-05-14 08:53:00
4:41 AM,71.6,68.0,88,30.13,8.0,SE,6.9,-,N/A,,Mostly Cloudy,130,2013-05-14 09:41:00
4:53 AM,73.0,69.1,87,30.13,8.0,ESE,6.9,-,N/A,,Overcast,110,2013-05-14 09:53:00
5:11 AM,73.4,69.8,88,30.12,8.0,ESE,9.2,-,N/A,,Scattered Clouds,110,2013-05-14 10:11:00
5:43 AM,73.4,69.8,88,30.13,8.0,ESE,8.1,-,N/A,,Mostly Cloudy,110,2013-05-14 10:43:00
5:53 AM,73.0,70.0,90,30.13,8.0,ESE,10.4,-,N/A,,Mostly Cloudy,120,2013-05-14 10:53:00
6:53 AM,73.0,70.0,90,30.14,9.0,ESE,9.2,-,N/A,,Mostly Cloudy,120,2013-05-14 11:53:00
7:09 AM,73.4,69.8,88,30.13,8.0,ESE,10.4,-,N/A,,Scattered Clouds,110,2013-05-14 12:09:00
7:30 AM,73.4,69.8,88,30.14,7.0,ESE,10.4,-,N/A,,Mostly Cloudy,120,2013-05-14 12:30:00
7:53 AM,73.9,70.0,87,30.14,8.0,ESE,10.4,-,N/A,,Mostly Cloudy,120,2013-05-14 12:53:00
8:12 AM,73.4,69.8,88,30.15,8.0,ESE,10.4,-,N/A,,Scattered Clouds,110,2013-05-14 13:12:00
8:53 AM,75.0,70.0,84,30.17,8.0,ESE,10.4,-,N/A,,Scattered Clouds,120,2013-05-14 13:53:00
9:09 AM,75.2,69.8,83,30.17,8.0,SE,11.5,-,N/A,,Mostly Cloudy,130,2013-05-14 14:09:00
9:33 AM,77.0,71.6,83,30.18,8.0,ESE,9.2,-,N/A,,Scattered Clouds,110,2013-05-14 14:33:00
9:53 AM,77.0,70.0,79,30.18,9.0,ESE,12.7,-,N/A,,Scattered Clouds,110,2013-05-14 14:53:00
10:53 AM,77.0,71.1,82,30.19,9.0,ESE,13.8,-,N/A,,Mostly Cloudy,110,2013-05-14 15:53:00
11:53 AM,78.1,70.0,76,30.19,9.0,ESE,11.5,-,N/A,,Scattered Clouds,120,2013-05-14 16:53:00
12:53 PM,80.1,70.0,71,30.17,9.0,ESE,13.8,-,N/A,,Mostly Cloudy,120,2013-05-14 17:53:00
1:05 PM,80.6,71.6,74,30.17,9.0,ESE,15.0,-,N/A,,Scattered Clouds,110,2013-05-14 18:05:00
1:53 PM,81.0,70.0,69,30.15,10.0,SE,18.4,23.0,N/A,,Scattered Clouds,130,2013-05-14 18:53:00
2:53 PM,80.1,71.1,74,30.14,9.0,ESE,17.3,-,N/A,,Mostly Cloudy,110,2013-05-14 19:53:00
3:53 PM,79.0,71.1,77,30.13,9.0,ESE,18.4,-,N/A,,Mostly Cloudy,110,2013-05-14 20:53:00
4:53 PM,80.1,71.1,74,30.09,8.0,ESE,17.3,-,N/A,,Scattered Clouds,120,2013-05-14 21:53:00
5:53 PM,79.0,71.1,77,30.09,8.0,ESE,16.1,-,N/A,,Partly Cloudy,120,2013-05-14 22:53:00
6:53 PM,77.0,71.1,82,30.08,8.0,ESE,16.1,-,N/A,,Mostly Cloudy,120,2013-05-14 23:53:00
7:16 PM,75.2,71.6,89,30.07,7.0,ESE,12.7,-,N/A,,Mostly Cloudy,110,2013-05-15 00:16:00
7:35 PM,75.2,71.6,89,30.07,7.0,ESE,13.8,-,N/A,,Mostly Cloudy,120,2013-05-15 00:35:00
7:44 PM,75.2,71.6,89,30.07,7.0,ESE,16.1,-,N/A,,Mostly Cloudy,120,2013-05-15 00:44:00
7:53 PM,75.9,71.1,85,30.07,7.0,ESE,15.0,-,N/A,,Mostly Cloudy,110,2013-05-15 00:53:00
8:53 PM,75.0,71.1,87,30.08,8.0,ESE,15.0,-,N/A,,Overcast,120,2013-05-15 01:53:00
9:11 PM,75.2,71.6,89,30.09,8.0,SE,13.8,-,N/A,,Overcast,130,2013-05-15 02:11:00
9:53 PM,75.0,71.1,87,30.11,8.0,SE,13.8,-,N/A,,Overcast,140,2013-05-15 02:53:00
10:53 PM,75.0,71.1,87,30.14,8.0,SSE,12.7,-,N/A,,Overcast,150,2013-05-15 03:53:00
11:03 PM,75.2,71.6,89,30.13,8.0,SE,13.8,-,N/A,,Overcast,140,2013-05-15 04:03:00
11:53 PM,75.0,71.1,87,30.14,8.0,SSE,13.8,-,N/A,,Overcast,150,2013-05-15 04:53:00